Location: Unspecified
(0.0000°N, 0.0000°E)
Time: 10:26:01
(UTC+02:00)

Resurs 01 Rocket - Visible Passes

Search period start: 02 October 2014 00:00
Search period end: 12 October 2014 00:00
Orbit: 636 x 646 km, 98.2° (Epoch: 01 October)

Date Brightness Start Highest point End Pass type
(mag) Time Alt. Az. Time Alt. Az. Time Alt. Az.
02 Oct 3.9 20:30:54 10° SSW 20:34:42 29° WSW 20:38:30 10° NW visible
03 Oct 4.8 07:07:21 10° ENE 07:10:17 18° ESE 07:13:14 10° SE visible
03 Oct 4.9 20:56:13 10° SW 20:58:26 14° WSW 21:00:40 10° WNW visible
05 Oct 2.1 20:05:21 10° S 20:09:43 68° WSW 20:14:04 10° NNW visible
06 Oct 3.8 20:29:36 10° SSW 20:33:28 30° WSW 20:37:19 10° NW visible
07 Oct 4.9 07:06:15 10° ENE 07:09:03 17° ESE 07:11:51 10° SE visible
07 Oct 4.9 20:54:47 10° SW 20:57:12 15° WSW 20:59:36 10° WNW visible
09 Oct 2.0 20:04:04 10° S 20:08:28 72° WSW 20:12:50 10° NNW visible
10 Oct 3.7 20:28:16 10° SSW 20:32:12 32° WSW 20:36:07 10° NW visible
11 Oct 5.0 07:05:09 10° ENE 07:07:48 16° ESE 07:10:27 10° SE visible
11 Oct 4.9 20:53:20 10° SW 20:55:56 15° WSW 20:58:31 10° WNW visible
